Regional Weather Roundup
Issued by NWS

Home | Current Version | Previous Version | Graphics & Text | Print | Product List | Glossary Off
Versions: 1 2 3 4 5 6 7 8 9 10 11 12 13 14 15 16 17 18 19 20 21 22 23 24 25 26 27 28 29 30 31 32 33 34 35 36 37 38 39 40 41 42 43 44 45 46 47 48 49 50

000
ASUS43 KMKX 021811
RWRWI

WISCONSIN REGIONAL WEATHER ROUNDUP
NATIONAL WEATHER SERVICE MILWAUKEE/SULLIVAN WI
100 PM CDT THU JUL 02 2015

NOTE: "FAIR" INDICATES FEW OR NO CLOUDS BELOW 12,000 FEET WITH NO
SIGNIFICANT WEATHER AND/OR OBSTRUCTIONS TO VISIBILITY.

WIZ001-002-006>008-014>016-023>028-021900-
NORTHWEST WISCONSIN

CITY           SKY/WX    TMP DP  RH WIND       PRES   REMARKS
SUPERIOR ARPT  NOT AVBL
ASHLAND        SUNNY     76  60  57 SW7       30.02S
6HR MIN TEMP:  53; 6HR MAX TEMP:  76;

HAYWARD        SUNNY     72  53  51 SE3       30.04F
6HR MIN TEMP:  53; 6HR MAX TEMP:  74;

SIREN          NOT AVBL
CUMBERLAND     NOT AVBL
RICE LAKE      NOT AVBL
CHETEK         NOT AVBL
LADYSMITH      NOT AVBL
EAU CLAIRE     MOSUNNY   74  52  46 MISG      30.02F
6HR MIN TEMP:  53; 6HR MAX TEMP:  74;

MENOMONIE      NOT AVBL
NEW RICHMOND   NOT AVBL
OSCEOLA        NOT AVBL
$$

WIZ003>005-009-010-017-018-021900-
NORTH CENTRAL WISCONSIN

CITY           SKY/WX    TMP DP  RH WIND       PRES   REMARKS
MANITOWISH WTR NOT AVBL
ARBOR VITAE    NOT AVBL
WOODRUFF       NOT AVBL
RHINELANDER    SUNNY     71  49  45 SW8       30.06F
6HR MIN TEMP:  51; 6HR MAX TEMP:  72;

EAGLE RIVER    NOT AVBL
LAND O LAKES   NOT AVBL
PHILLIPS       NOT AVBL
TOMAHAWK       NOT AVBL
MEDFORD        NOT AVBL
MERRILL        NOT AVBL
$$

WIZ029-030-035-036-043>047-021900-
CENTRAL WISCONSIN

CITY           SKY/WX    TMP DP  RH WIND       PRES   REMARKS
WAUSAU         SUNNY     72  44  36 E6        30.04F
6HR MIN TEMP:  53; 6HR MAX TEMP:  72;

MOSINEE        SUNNY     70  46  43 CALM      30.06F
MARSHFIELD     SUNNY     70  49  47 MISG      30.05F
6HR MIN TEMP:  54; 6HR MAX TEMP:  71;

STEVENS POINT  NOT AVBL
WAUPACA        NOT AVBL
WAUTOMA        SUNNY     69  45  42 NE6       30.06F
6HR MIN TEMP:  50; 6HR MAX TEMP:  69;

WISC RAPIDS    SUNNY     70  44  39 CALM      30.06F
6HR MIN TEMP:  54; 6HR MAX TEMP:  71;

CAMP DOUGLAS   MOSUNNY   70  55  60 E8        30.03F
$$

WIZ011>013-019>022-031-037>040-048>050-021900-
NORTHEAST WISCONSIN

CITY           SKY/WX    TMP DP  RH WIND       PRES   REMARKS
ANTIGO         NOT AVBL
SHAWANO        NOT AVBL
OCONTO         NOT AVBL
STURGEON BAY   SUNNY     66  48  52 NE5       30.09S
6HR MIN TEMP:  52; 6HR MAX TEMP:  66;

GREEN BAY      SUNNY     71  49  45 E10       30.06F
6HR MIN TEMP:  53; 6HR MAX TEMP:  71;

MANITOWOC      SUNNY     67  49  52 MISG      30.07S
6HR MIN TEMP:  51; 6HR MAX TEMP:  67;

APPLETON       SUNNY     68  43  40 E7        30.06F
CLINTONVILLE   NOT AVBL
OSHKOSH        SUNNY     67  48  50 VRB5      30.06S
6HR MIN TEMP:  57; 6HR MAX TEMP:  68;

$$

WIZ032>034-041-042-053>061-021900-
SOUTHWEST WISCONSIN

CITY           SKY/WX    TMP DP  RH WIND       PRES   REMARKS
LA CROSSE      SUNNY     72  53  51 VRB3      30.02F
6HR MIN TEMP:  52; 6HR MAX TEMP:  72;

SPARTA         NOT AVBL
VIROQUA        NOT AVBL
BOSCOBEL       MOSUNNY   71  52  50 NE6       30.02F
6HR MIN TEMP:  52; 6HR MAX TEMP:  71;

PRAIRIE DU CHI NOT AVBL
PLATTEVILLE    NOT AVBL
$$

WIZ056-057-062-063-064-067-068-021900-
SOUTH CENTRAL WISCONSIN

CITY           SKY/WX    TMP DP  RH WIND       PRES   REMARKS
REEDSBURG      NOT AVBL
BARABOO/DELLS  SUNNY     67  47  48 NE9       30.05F
LONE ROCK      MOSUNNY   70  50  49 E9        30.03F
6HR MIN TEMP:  50; 6HR MAX TEMP:  70;

MINERAL POINT  NOT AVBL
MADISON        SUNNY     68  47  46 NE6       30.03F
6HR MIN TEMP:  51; 6HR MAX TEMP:  68;

MIDDLETON      NOT AVBL
WATERTOWN      NOT AVBL
MONROE         NOT AVBL
JANESVILLE     SUNNY     70  48  46 NE8       30.02F
$$

WIZ051-052-058>065-066-070>072-021900-
SOUTHEAST WISCONSIN

CITY           SKY/WX    TMP DP  RH WIND       PRES   REMARKS
MILWAUKEE      MOSUNNY   63  50  62 NE9       30.05F
6HR MIN TEMP:  54; 6HR MAX TEMP:  63;

WAUKESHA       SUNNY     64  46  52 NE9       30.05F
MILWAUKEE/TIMM SUNNY     64  46  52 NE8       30.05F
RACINE         SUNNY     64  51  62 NE10      30.06F
6HR MIN TEMP:  55; 6HR MAX TEMP:  64;

BURLINGTON     NOT AVBL
KENOSHA        SUNNY     66  52  60 E10       30.03F
6HR MIN TEMP:  54; 6HR MAX TEMP:  67;

FOND DU LAC    SUNNY     70  46  42 E9        30.05F
6HR MIN TEMP:  54; 6HR MAX TEMP:  70;

SHEBOYGAN      SUNNY     66  48  52 NE9       30.06S
6HR MIN TEMP:  52; 6HR MAX TEMP:  66;

WEST BEND      NOT AVBL
JUNEAU         NOT AVBL
$$

LSZ147-162-021900-
LAKE SUPERIOR

STATION/POSITION TIME  TEMP    WIND        PRES    WAVE
                       AIR SEA DIR/SP/G            HT/PER
                 (UTC) (F)     (DEG/KT/KT) (MB)    (FT/S)
W MID LAKE BUOY  1750   48 39  180/  6/  6 1016.0F   0
DEVILS ISLAND    1800   64     220/  6/  8 1015.7F
SAXON HARBOR     1740   75     230/  4/  7 1015.9F
$$

LMZ867-665-643>646-021900-
LAKE MICHIGAN

STATION/POSITION TIME  TEMP    WIND        PRES    WAVE
                       AIR SEA DIR/SP/G            HT/PER
                 (UTC) (F)     (DEG/KT/KT) (MB)    (FT/S)
CHAMBERS ISLAND  1700   65      10/  4/  5 1018.3F
N MID LAKE BUOY  1750   52 49  110/  2/  2 1018.5F   0
NORTHPORT PIER   1700   61     340/  4/  5 1018.3S
SISTER BAY       1744   67     360/  8/  9   N/A
ALGOMA LAKESHORE 1725           80/  8/  9   N/A
KEWAUNEE LAKESHO 1700   61      40/  5/  7 1017.9R
SHEBOYGAN LAKESH 1800   56      10/ 10/ 11 1018.4F
PORT WASHINGTON  1700   60      60/  8/ 10 1018.6
ATWATER BUOY     1800   57      20/ 10/ 12 1018.8F
MILWAUKEE LAKESH 1700   56      40/ 11/ 12   N/A
KENOSHA   LAKESH 1800   56      30/ 14/ 16 1016.9F
$$

TC  - TEMPERATURE IN CELSIUS
VSB - VISIBILITY IN STATUTE MILES
WCI - WIND CHILL INDEX
HX  - HEAT INDEX



USA.gov is the U.S. government's official web portal to all federal, state and local government web resources and services.